BAW2WD EGLL-LGSR

Flight info

Callsign BAW2WD
Flight time N/A
Altitude 35000
Route DET L6 DVR UL9 KONAN DCT KOK DCT SISGA DCT RITAX DCT KRH DCT KUNOD DCT GEDSO DCT VEKEN DCT MSR/N0449F370 DCT PINDO DCT KEA UL607 GENDO L607 NETIS M601 PEXAN
Aircraft A320/M-SDE3FGHIRWY/LB1

Departure

Time 2026-04-30 12:10
Airport London Heathrow Airport (EGLL)

Arrival

Time N/A
Airport Santorini International Airport (LGSR)
Time Latitude Longitude Altitude Speed Heading
2026-04-30 11:38 51.47316 -0.48601 86 ft 0 kts 270°
2026-04-30 11:59 51.47316 -0.48600 86 ft 0 kts 270°
2026-04-30 12:00 51.47316 -0.48565 86 ft 4 kts 266°
2026-04-30 12:00 51.47320 -0.48522 86 ft 4 kts 255°
2026-04-30 12:00 51.47330 -0.48485 90 ft 4 kts 220°
2026-04-30 12:00 51.47342 -0.48475 89 ft 0 kts 180°
2026-04-30 12:02 51.47339 -0.48475 89 ft 1 kts 179°
2026-04-30 12:02 51.47325 -0.48474 89 ft 3 kts 179°
2026-04-30 12:02 51.47294 -0.48469 90 ft 5 kts 165°
2026-04-30 12:03 51.47270 -0.48421 88 ft 7 kts 108°
2026-04-30 12:03 51.47178 -0.48355 89 ft 9 kts 181°
2026-04-30 12:03 51.47107 -0.48356 88 ft 11 kts 180°
2026-04-30 12:04 51.47051 -0.48411 88 ft 7 kts 253°
2026-04-30 12:04 51.47016 -0.48470 88 ft 8 kts 190°
2026-04-30 12:04 51.46956 -0.48469 88 ft 0 kts 179°
2026-04-30 12:05 51.46954 -0.48469 87 ft 2 kts 179°
2026-04-30 12:05 51.46933 -0.48469 86 ft 4 kts 180°
2026-04-30 12:05 51.46902 -0.48470 87 ft 5 kts 180°
2026-04-30 12:05 51.46861 -0.48469 86 ft 7 kts 179°
2026-04-30 12:06 51.46811 -0.48468 86 ft 8 kts 179°
2026-04-30 12:06 51.46749 -0.48467 86 ft 10 kts 179°
2026-04-30 12:06 51.46688 -0.48468 86 ft 7 kts 184°
2026-04-30 12:06 51.46653 -0.48525 89 ft 8 kts 257°
2026-04-30 12:07 51.46651 -0.48626 86 ft 10 kts 268°
2026-04-30 12:07 51.46637 -0.48737 88 ft 11 kts 226°
2026-04-30 12:07 51.46594 -0.48770 88 ft 2 kts 198°
2026-04-30 12:07 51.46593 -0.48770 88 ft 0 kts 198°
2026-04-30 12:08 51.46585 -0.48774 88 ft 4 kts 198°
2026-04-30 12:08 51.46542 -0.48784 88 ft 8 kts 179°
2026-04-30 12:08 51.46487 -0.48729 88 ft 11 kts 118°
2026-04-30 12:09 51.46479 -0.48560 86 ft 26 kts 89°
2026-04-30 12:09 51.46483 -0.47929 87 ft 86 kts 90°
2026-04-30 12:09 51.46487 -0.46703 90 ft 131 kts 90°
2026-04-30 12:09 51.46485 -0.45076 280 ft 152 kts 89°
2026-04-30 12:10 51.46509 -0.43427 1012 ft 149 kts 88°
2026-04-30 12:10 51.46520 -0.41730 1544 ft 155 kts 97°
2026-04-30 12:10 51.45984 -0.40176 1777 ft 178 kts 135°
2026-04-30 12:10 51.45065 -0.38709 1979 ft 196 kts 124°
2026-04-30 12:11 51.44286 -0.36778 2304 ft 217 kts 120°
2026-04-30 12:11 51.43575 -0.34509 2748 ft 236 kts 106°
2026-04-30 12:11 51.43244 -0.31904 3538 ft 240 kts 103°
2026-04-30 12:11 51.42898 -0.29283 4416 ft 242 kts 105°
2026-04-30 12:12 51.42531 -0.26637 5225 ft 245 kts 106°
2026-04-30 12:12 51.42158 -0.23938 5822 ft 252 kts 105°
2026-04-30 12:12 51.41785 -0.21213 6420 ft 255 kts 105°
2026-04-30 12:12 51.41406 -0.18416 7175 ft 259 kts 105°
2026-04-30 12:13 51.41021 -0.15579 7925 ft 262 kts 105°
2026-04-30 12:13 51.40629 -0.12716 8696 ft 264 kts 105°
2026-04-30 12:13 51.40231 -0.09827 9452 ft 267 kts 105°
2026-04-30 12:13 51.39829 -0.06905 10182 ft 270 kts 105°
2026-04-30 12:14 51.39412 -0.03894 10534 ft 287 kts 105°
2026-04-30 12:14 51.38956 -0.00651 10657 ft 310 kts 104°
2026-04-30 12:14 51.38467 0.02828 10784 ft 331 kts 104°
2026-04-30 12:14 51.37961 0.06440 11153 ft 341 kts 104°
2026-04-30 12:15 51.37443 0.10170 11689 ft 346 kts 104°
2026-04-30 12:15 51.36918 0.13941 12265 ft 349 kts 104°
2026-04-30 12:15 51.36384 0.17753 12846 ft 353 kts 104°
2026-04-30 12:15 51.35843 0.21603 13430 ft 356 kts 104°
2026-04-30 12:16 51.35297 0.25494 13993 ft 360 kts 104°
2026-04-30 12:16 51.34744 0.29413 14484 ft 363 kts 104°
2026-04-30 12:16 51.34181 0.33371 14981 ft 366 kts 105°
2026-04-30 12:16 51.33620 0.37301 15470 ft 369 kts 105°
2026-04-30 12:17 51.32464 0.45353 16510 ft 374 kts 105°
2026-04-30 12:17 51.31881 0.49427 16991 ft 377 kts 105°
2026-04-30 12:17 51.31290 0.53525 17481 ft 380 kts 105°
2026-04-30 12:18 51.30692 0.57661 17988 ft 383 kts 105°
2026-04-30 12:18 51.30068 0.61812 18478 ft 386 kts 106°
2026-04-30 12:18 51.29362 0.65963 18926 ft 388 kts 108°
2026-04-30 12:18 51.28601 0.70113 19383 ft 390 kts 108°
2026-04-30 12:19 51.27811 0.74265 19857 ft 392 kts 109°
2026-04-30 12:19 51.27024 0.78378 20340 ft 393 kts 109°
2026-04-30 12:19 51.26230 0.82564 20810 ft 395 kts 108°
2026-04-30 12:19 51.25441 0.86771 21263 ft 396 kts 108°
2026-04-30 12:20 51.24656 0.90994 21689 ft 398 kts 108°
2026-04-30 12:20 51.23871 0.95239 22107 ft 399 kts 108°
2026-04-30 12:20 51.23082 0.99503 22483 ft 402 kts 108°
2026-04-30 12:20 51.22289 1.03784 22873 ft 404 kts 108°
2026-04-30 12:21 51.21491 1.08092 23257 ft 406 kts 108°
2026-04-30 12:21 51.20700 1.12357 23637 ft 408 kts 108°
2026-04-30 12:21 51.20153 1.15294 23899 ft 409 kts 108°
2026-04-30 12:21 51.19616 1.18172 24106 ft 410 kts 108°
2026-04-30 12:22 51.16161 1.38094 25533 ft 419 kts 98°
2026-04-30 12:23 51.15929 1.42736 25840 ft 421 kts 96°
2026-04-30 12:23 51.15710 1.47397 26209 ft 420 kts 96°
2026-04-30 12:23 51.15502 1.51890 27555 ft 394 kts 96°
2026-04-30 12:23 51.15305 1.56156 28565 ft 381 kts 97°
2026-04-30 12:24 51.15106 1.60338 29183 ft 377 kts 97°
2026-04-30 12:24 51.14904 1.64429 29656 ft 375 kts 97°
2026-04-30 12:24 51.14696 1.68556 30101 ft 373 kts 97°
2026-04-30 12:24 51.14489 1.72665 30503 ft 372 kts 97°
2026-04-30 12:25 51.14282 1.76769 30871 ft 371 kts 97°
2026-04-30 12:25 51.14075 1.80858 31234 ft 370 kts 97°
2026-04-30 12:25 51.13868 1.84939 31589 ft 369 kts 97°
2026-04-30 12:25 51.13657 1.89016 31941 ft 369 kts 97°
2026-04-30 12:26 51.13445 1.93065 32372 ft 364 kts 97°
2026-04-30 12:26 51.13240 1.97015 33085 ft 353 kts 97°
2026-04-30 12:26 51.13035 2.00892 33466 ft 351 kts 97°